TimePST,TemperatureF,Dew PointF,Humidity,Sea Level PressureIn,VisibilityMPH,Wind Direction,Wind SpeedMPH,Gust SpeedMPH,PrecipitationIn,Events,Conditions,WindDirDegrees,DateUTC
12:53 AM,55.0,51.1,86,30.21,10.0,Calm,Calm,-,N/A,,Overcast,0,2012-12-05 08:53:00
1:53 AM,55.0,52.0,89,30.21,10.0,Calm,Calm,-,N/A,,Overcast,0,2012-12-05 09:53:00
2:53 AM,55.9,52.0,87,30.20,10.0,Calm,Calm,-,N/A,,Overcast,0,2012-12-05 10:53:00
3:40 AM,55.4,53.6,94,30.19,6.0,Calm,Calm,-,N/A,,Overcast,0,2012-12-05 11:40:00
3:53 AM,55.0,53.1,93,30.19,7.0,Calm,Calm,-,N/A,,Overcast,0,2012-12-05 11:53:00
4:53 AM,55.0,53.1,93,30.18,5.0,Calm,Calm,-,N/A,,Overcast,0,2012-12-05 12:53:00
6:53 AM,55.9,55.0,97,30.17,3.0,Calm,Calm,-,0.00,Rain,Light Rain,0,2012-12-05 14:53:00
7:53 AM,55.9,55.0,97,30.18,7.0,WNW,5.8,-,0.01,Rain,Light Rain,290,2012-12-05 15:53:00
8:03 AM,57.2,57.2,100,30.19,1.8,WSW,4.6,-,0.07,Rain,Heavy Rain,250,2012-12-05 16:03:00
8:12 AM,57.2,57.2,100,30.19,1.5,Calm,Calm,-,0.14,Rain,Heavy Rain,0,2012-12-05 16:12:00
8:22 AM,57.2,57.2,100,30.19,1.2,Calm,Calm,-,0.20,Rain,Heavy Rain,0,2012-12-05 16:22:00
8:29 AM,57.2,-9999,N/A,30.19,1.5,Calm,Calm,-,0.23,Rain,Heavy Rain,0,2012-12-05 16:29:00
8:41 AM,57.2,57.2,100,30.19,1.5,Calm,Calm,-,0.28,Rain,Heavy Rain,0,2012-12-05 16:41:00
8:47 AM,57.2,57.2,100,30.19,1.2,Calm,Calm,-,0.30,Rain,Heavy Rain,0,2012-12-05 16:47:00
8:48 AM,57.0,57.0,100,30.19,1.2,Calm,Calm,-,0.31,Rain,Heavy Rain,0,2012-12-05 16:48:00
8:54 AM,57.2,57.2,100,30.19,2.0,Calm,Calm,-,0.01,Rain,Rain,0,2012-12-05 16:54:00
9:14 AM,57.2,57.2,100,30.19,8.0,Calm,Calm,-,0.04,Rain,Light Rain,0,2012-12-05 17:14:00
9:49 AM,57.2,57.2,100,30.20,10.0,Calm,Calm,-,0.05,,Overcast,0,2012-12-05 17:49:00
9:53 AM,57.9,57.9,100,30.20,9.0,Calm,Calm,-,0.05,,Overcast,0,2012-12-05 17:53:00
10:16 AM,57.2,57.2,100,30.19,2.5,SSE,4.6,-,0.01,Rain,Light Rain,150,2012-12-05 18:16:00
10:24 AM,57.2,57.2,100,30.18,3.0,SE,6.9,-,0.01,Rain,Light Rain,140,2012-12-05 18:24:00
10:53 AM,57.9,57.9,100,30.17,8.0,East,4.6,-,0.01,Rain,Light Rain,90,2012-12-05 18:53:00
11:38 AM,59.0,59.0,100,30.17,10.0,West,3.5,-,0.00,,Overcast,280,2012-12-05 19:38:00
11:46 AM,59.0,59.0,100,30.16,1.8,Calm,Calm,-,0.01,Rain,Light Rain,0,2012-12-05 19:46:00
11:53 AM,59.0,59.0,100,30.16,1.0,Calm,Calm,-,0.01,Rain,Light Rain,0,2012-12-05 19:53:00
12:01 PM,60.8,60.8,100,30.15,1.0,Calm,Calm,-,0.01,Rain,Light Rain,0,2012-12-05 20:01:00
12:12 PM,60.8,60.8,100,30.14,1.5,Calm,Calm,-,0.02,Rain,Light Rain,0,2012-12-05 20:12:00
12:25 PM,60.8,60.8,100,30.13,2.5,Calm,Calm,-,0.02,,Overcast,0,2012-12-05 20:25:00
12:38 PM,60.8,60.8,100,30.13,5.0,Calm,Calm,-,0.02,,Overcast,0,2012-12-05 20:38:00
12:53 PM,62.1,62.1,100,30.12,10.0,Calm,Calm,-,0.02,,Overcast,0,2012-12-05 20:53:00
1:18 PM,62.6,62.6,100,30.11,10.0,Calm,Calm,-,N/A,,Overcast,0,2012-12-05 21:18:00
1:53 PM,62.1,62.1,100,30.10,9.0,South,3.5,-,N/A,,Overcast,180,2012-12-05 21:53:00
2:08 PM,62.6,62.6,100,30.10,10.0,South,3.5,-,N/A,,Overcast,190,2012-12-05 22:08:00
2:18 PM,62.6,62.6,100,30.10,10.0,SSW,4.6,-,N/A,,Overcast,200,2012-12-05 22:18:00
2:27 PM,62.6,62.6,100,30.10,10.0,SSW,3.5,-,N/A,,Overcast,200,2012-12-05 22:27:00
2:34 PM,62.6,62.6,100,30.09,10.0,Calm,Calm,-,N/A,,Overcast,0,2012-12-05 22:34:00
2:43 PM,62.6,60.8,94,30.08,10.0,Calm,Calm,-,N/A,,Overcast,0,2012-12-05 22:43:00
2:53 PM,62.1,62.1,100,30.09,10.0,Calm,Calm,-,N/A,,Overcast,0,2012-12-05 22:53:00
3:53 PM,62.1,59.0,90,30.08,10.0,Calm,Calm,-,N/A,,Overcast,0,2012-12-05 23:53:00
4:53 PM,61.0,59.0,93,30.08,10.0,Calm,Calm,-,N/A,,Overcast,0,2012-12-06 00:53:00
5:53 PM,62.1,59.0,90,30.09,10.0,Calm,Calm,-,N/A,,Overcast,0,2012-12-06 01:53:00
6:04 PM,60.8,60.8,100,30.09,10.0,Calm,Calm,-,N/A,,Overcast,0,2012-12-06 02:04:00
6:53 PM,61.0,59.0,93,30.10,10.0,Calm,Calm,-,N/A,,Overcast,0,2012-12-06 02:53:00
7:53 PM,60.1,59.0,96,30.11,9.0,Calm,Calm,-,0.01,,Overcast,0,2012-12-06 03:53:00
8:17 PM,60.8,59.0,94,30.11,10.0,Calm,Calm,-,N/A,,Overcast,0,2012-12-06 04:17:00
8:25 PM,60.8,59.0,94,30.11,10.0,Calm,Calm,-,N/A,,Overcast,0,2012-12-06 04:25:00
8:53 PM,60.1,59.0,96,30.11,5.0,Calm,Calm,-,N/A,,Overcast,0,2012-12-06 04:53:00
9:21 PM,60.8,59.0,94,30.11,7.0,Calm,Calm,-,N/A,,Overcast,0,2012-12-06 05:21:00
9:53 PM,60.1,57.9,93,30.11,7.0,Calm,Calm,-,N/A,,Overcast,0,2012-12-06 05:53:00
10:41 PM,59.0,57.2,94,30.11,2.0,Calm,Calm,-,N/A,,Overcast,0,2012-12-06 06:41:00
10:53 PM,59.0,57.9,96,30.11,3.0,Calm,Calm,-,N/A,,Overcast,0,2012-12-06 06:53:00
11:18 PM,59.0,57.2,94,30.11,1.8,Calm,Calm,-,N/A,,Overcast,0,2012-12-06 07:18:00
11:24 PM,59.0,57.2,94,30.11,0.8,Calm,Calm,-,N/A,,Overcast,0,2012-12-06 07:24:00
11:53 PM,59.0,57.9,96,30.11,0.2,Calm,Calm,-,N/A,Fog,Fog,0,2012-12-06 07:53:00